FW5174 Weather Reports


time (UTC)temp
C
wind
direction
speed
KPH
gust
KPH
rain 1hr
cm
rain 24hr
cm
rain mn
cm
humidity
%
barometer
mb
20260505051545 9 10 0.0 0.0 0.00 0.00 0.00 66 1015.0
20260505051044 9 15 0.0 1.6 0.00 0.00 0.00 66 1015.0
20260505050544 10 338 0.0 1.6 0.00 0.00 0.00 65 1015.0
20260505041532 10 337 0.0 0.0 0.00 0.00 0.00 63 1014.9
20260505041031 11 337 0.0 0.0 0.00 0.00 0.00 62 1015.0
20260505040529 11 331 0.0 1.6 0.00 0.00 0.00 61 1014.9
20260505040030 11 331 0.0 1.6 0.00 0.00 0.00 61 1014.9
20260505035528 11 327 0.0 1.6 0.00 0.00 0.00 61 1015.0
20260505035027 11 340 0.0 1.6 0.00 0.00 0.00 60 1014.9
20260505034527 11 333 0.0 1.6 0.00 0.00 0.00 60 1015.0
20260505034027 11 333 0.0 3.2 0.00 0.00 0.00 59 1015.0
20260505033526 11 333 0.0 3.2 0.00 0.00 0.00 59 1015.1
20260505033027 11 341 0.0 1.6 0.00 0.00 0.00 60 1015.2
20260505032524 12 340 0.0 1.6 0.00 0.00 0.00 60 1015.2
20260505032026 12 345 0.0 1.6 0.00 0.00 0.00 60 1015.2
20260505031539 12 326 0.0 1.6 0.00 0.00 0.00 60 1015.2
20260505031024 12 332 0.0 3.2 0.00 0.00 0.00 60 1015.2
20260505030525 12 334 0.0 3.2 0.00 0.00 0.00 58 1015.2
20260505030026 12 333 0.0 3.2 0.00 0.00 0.00 58 1015.2
20260505025526 12 339 0.0 1.6 0.00 0.00 0.00 57 1015.2
20260505025025 12 340 0.0 0.0 0.00 0.00 0.00 56 1015.2
20260505024533 13 328 0.0 0.0 0.00 0.00 0.00 56 1015.2
20260505024025 13 334 0.0 0.0 0.00 0.00 0.00 55 1015.1
20260505023523 13 324 0.0 0.0 0.00 0.00 0.00 55 1015.2
20260505023027 13 339 0.0 0.0 0.00 0.00 0.00 54 1015.1
20260505022521 13 329 0.0 0.0 0.00 0.00 0.00 53 1015.2
20260505022023 13 331 0.0 0.0 0.00 0.00 0.00 53 1015.0
20260505021526 14 331 0.0 0.0 0.00 0.00 0.00 53 1014.9
20260505021020 14 324 0.0 0.0 0.00 0.00 0.00 52 1014.8
20260505020619 15 334 0.0 0.0 0.00 0.00 0.00 52 1014.8
20260505020028 15 338 0.0 0.0 0.00 0.00 0.00 52 1014.7
20260505015519 15 340 0.0 0.0 0.00 0.00 0.00 51 1014.6
20260505015019 15 341 0.0 0.0 0.00 0.00 0.00 51 1014.5
20260505014526 15 342 0.0 0.0 0.00 0.00 0.00 50 1014.5
20260505014018 15 12 0.0 0.0 0.00 0.00 0.00 49 1014.4
20260505013516 15 349 0.0 0.0 0.00 0.00 0.00 47 1014.3
20260505013016 16 329 0.0 0.0 0.00 0.00 0.00 48 1014.3
20260505012515 16 337 0.0 0.0 0.00 0.00 0.00 47 1014.2
20260505012018 16 340 0.0 1.6 0.00 0.00 0.00 46 1014.1
20260505011528 16 8 0.0 1.6 0.00 0.00 0.00 44 1014.1
20260505011014 16 7 0.0 4.8 0.00 0.00 0.00 45 1014.1
20260505010614 16 18 0.0 1.6 0.00 0.00 0.00 45 1014.0
20260505010015 16 337 0.0 1.6 0.00 0.00 0.00 45 1014.2
20260505005515 17 337 0.0 1.6 0.00 0.00 0.00 45 1014.1
20260505005013 17 337 0.0 1.6 0.00 0.00 0.00 45 1014.1
20260505004531 17 333 0.0 1.6 0.00 0.00 0.00 44 1013.9
20260505004013 17 330 0.0 1.6 0.00 0.00 0.00 43 1013.8
20260505003511 18 333 0.0 1.6 0.00 0.00 0.00 41 1013.7
20260505003012 18 330 0.0 1.6 0.00 0.00 0.00 41 1013.5
20260505002611 18 332 0.0 1.6 0.00 0.00 0.00 38 1013.5
20260505002017 20 345 0.0 0.0 0.00 0.00 0.00 36 1013.4
20260505001509 20 1 0.0 0.0 0.00 0.00 0.00 34 1013.5
20260505001014 20 1 0.0 0.0 0.00 0.00 0.00 34 1013.5
20260505000609 22 352 0.0 0.0 0.00 0.00 0.00 29 1013.6
20260505000008 22 11 0.0 0.0 0.00 0.00 0.00 28 1013.4
20260504235506 23 4 0.0 0.0 0.00 0.00 0.00 27 1013.3
20260504235104 23 1 0.0 0.0 0.00 0.00 0.00 27 1013.3
20260504234505 23 2 0.0 0.0 0.00 0.00 0.00 26 1013.4
20260504234002 23 20 0.0 0.0 0.00 0.00 0.00 24 1013.2
20260504233502 25 307 0.0 0.0 0.00 0.00 0.00 26 1013.4
20260504233001 25 307 0.0 0.0 0.00 0.00 0.00 21 1013.2
20260504232501 25 288 0.0 1.6 0.00 0.00 0.00 22 1013.3
20260504232000 25 262 0.0 1.6 0.00 0.00 0.00 21 1013.3
20260504231602 25 263 0.0 1.6 0.00 0.00 0.00 20 1013.2
20260504231100 25 260 0.0 1.6 0.00 0.00 0.00 19 1013.2
20260504230558 25 13 0.0 3.2 0.00 0.00 0.00 18 1013.2
20260504230000 25 356 0.0 3.2 0.00 0.00 0.00 17 1013.2
20260504225600 25 65 0.0 4.8 0.00 0.00 0.00 18 1013.2
20260504225001 25 324 0.0 6.4 0.00 0.00 0.00 18 1013.1
20260504224600 25 13 0.0 11.3 0.00 0.00 0.00 19 1013.0
20260504224101 25 278 3.2 11.3 0.00 0.00 0.00 17 1013.0
20260504223600 25 255 1.6 9.7 0.00 0.00 0.00 17 1013.1
20260504223105 25 49 0.0 14.5 0.00 0.00 0.00 17 1013.1
20260504222559 25 330 1.6 14.5 0.00 0.00 0.00 17 1013.1
20260504222058 25 335 8.0 14.5 0.00 0.00 0.00 16 1013.2
20260504221604 25 107 1.6 14.5 0.00 0.00 0.00 18 1013.1
20260504221055 25 11 3.2 14.5 0.00 0.00 0.00 18 1013.2
20260504220555 25 54 4.8 19.3 0.00 0.00 0.00 17 1013.1
20260504215600 25 354 4.8 16.1 0.00 0.00 0.00 18 1013.0
20260504215057 25 32 3.2 11.3 0.00 0.00 0.00 18 1012.9
20260504214558 25 328 3.2 14.5 0.00 0.00 0.00 18 1013.0
20260504214054 25 238 6.4 14.5 0.00 0.00 0.00 18 1013.1
20260504213554 25 205 4.8 12.9 0.00 0.00 0.00 18 1013.0
20260504213054 26 194 3.2 12.9 0.00 0.00 0.00 17 1013.1
20260504212552 26 85 3.2 12.9 0.00 0.00 0.00 19 1013.0
20260504212055 25 101 1.6 16.1 0.00 0.00 0.00 18 1012.9
20260504211551 26 343 6.4 16.1 0.00 0.00 0.00 17 1012.9
20260504211051 26 266 3.2 12.9 0.00 0.00 0.00 17 1012.9
20260504210549 26 338 3.2 12.9 0.00 0.00 0.00 16 1012.8
20260504205544 26 334 4.8 16.1 0.00 0.00 0.00 17 1012.9
20260504205043 26 56 1.6 17.7 0.00 0.00 0.00 18 1013.0
20260504204543 26 248 8.0 17.7 0.00 0.00 0.00 17 1012.7
20260504204042 27 128 3.2 14.5 0.00 0.00 0.00 17 1012.9
20260504203540 27 87 3.2 19.3 0.00 0.00 0.00 16 1012.9
20260504203040 26 89 6.4 19.3 0.00 0.00 0.00 18 1013.0
20260504202539 26 286 4.8 17.7 0.00 0.00 0.00 17 1013.0
20260504202037 26 176 3.2 12.9 0.00 0.00 0.00 17 1013.0
20260504201538 27 236 3.2 11.3 0.00 0.00 0.00 17 1013.2
20260504201036 26 271 4.8 11.3 0.00 0.00 0.00 17 1013.1
20260504200635 26 212 4.8 19.3 0.00 0.00 0.00 18 1013.3
20260504195533 26 273 8.0 19.3 0.00 0.00 0.00 17 1013.6
20260504195033 27 228 3.2 14.5 0.00 0.00 0.00 17 1013.7
20260504194533 27 220 3.2 9.7 0.00 0.00 0.00 17 1013.8
20260504194032 27 95 1.6 11.3 0.00 0.00 0.00 18 1013.8
20260504193532 26 237 3.2 19.3 0.00 0.00 0.00 18 1013.9
20260504193030 26 23 9.7 19.3 0.00 0.00 0.00 18 1014.0
20260504192528 27 139 3.2 11.3 0.00 0.00 0.00 17 1014.0
20260504192027 26 83 1.6 12.9 0.00 0.00 0.00 18 1014.1
20260504191526 27 19 4.8 12.9 0.00 0.00 0.00 17 1014.3
20260504191026 27 63 4.8 12.9 0.00 0.00 0.00 18 1014.3
20260504190525 26 84 1.6 17.7 0.00 0.00 0.00 18 1014.4
20260504185522 26 181 3.2 17.7 0.00 0.00 0.00 17 1014.5
20260504185122 26 109 4.8 11.3 0.00 0.00 0.00 18 1014.4
20260504184520 26 122 3.2 14.5 0.00 0.00 0.00 18 1014.5
20260504184022 26 322 4.8 14.5 0.00 0.00 0.00 17 1014.6
20260504183519 26 102 3.2 12.9 0.00 0.00 0.00 18 1014.6
20260504183016 26 74 1.6 12.9 0.00 0.00 0.00 20 1014.7
20260504182515 26 330 4.8 12.9 0.00 0.00 0.00 18 1014.8
20260504182014 26 244 3.2 11.3 0.00 0.00 0.00 19 1014.9
20260504181514 27 51 3.2 11.3 0.00 0.00 0.00 18 1015.0
20260504181013 27 354 1.6 11.3 0.00 0.00 0.00 18 1015.1
20260504180513 27 129 1.6 8.0 0.00 0.00 0.00 17 1015.1
20260504175516 27 155 3.2 11.3 0.00 0.00 0.00 17 1015.1
20260504175010 25 110 1.6 11.3 0.00 0.00 0.00 19 1015.2
20260504174510 25 333 1.6 14.5 0.00 0.00 0.00 17 1015.3
20260504174008 26 30 3.2 14.5 0.00 0.00 0.00 16 1015.3
20260504173508 25 58 1.6 9.7 0.00 0.00 0.00 17 1015.3
20260504173007 25 10 1.6 9.7 0.00 0.00 0.00 17 1015.5
20260504172506 25 76 3.2 9.7 0.00 0.00 0.00 17 1015.5
20260504172005 25 111 3.2 11.3 0.00 0.00 0.00 17 1015.4
20260504171505 25 202 6.4 11.3 0.00 0.00 0.00 16 1015.7
20260504171003 25 269 1.6 8.0 0.00 0.00 0.00 17 1015.7
20260504170500 24 286 0.0 16.1 0.00 0.00 0.00 17 1015.8
20260504151031 21 122 1.6 4.8 0.00 0.00 0.00 21 1018.0
20260504150531 21 72 0.0 4.8 0.00 0.00 0.00 26 1018.1
20260504141017 16 181 0.0 1.6 0.00 0.00 0.00 35 1018.2
20260504140515 16 300 0.0 3.2 0.00 0.00 0.00 39 1018.2
20260504130552 10 323 1.6 6.4 0.00 0.00 0.00 58 1018.0
20260504110530 2 345 0.0 1.6 0.00 0.00 0.00 75 1017.7
20260504100521 2 337 0.0 0.0 0.00 0.00 0.00 73 1017.8
20260504082004 3 259 0.0 1.6 0.00 0.00 0.00 67 1017.4
20260504081504 3 259 0.0 1.6 0.00 0.00 0.00 68 1017.5
20260504081004 3 342 0.0 1.6 0.00 0.00 0.00 67 1017.4
20260504080603 3 343 0.0 1.6 0.00 0.00 0.00 67 1017.3
20260504070153 4 334 0.0 0.0 0.00 0.00 0.00 66 1017.1